Retour au catalogue

COSMOS 2251 DEB

ActifLEO
NORAD 35716·DEBRIS·🇷🇺 Russia

Lancé Jun 16, 1993 depuis Plesetsk Cosmodrome

Loading…

Prochains Passages (prochaines 24 heures)

TLE

VieillissantSource: Space-Track

Époque: Sep 12, 2026, 16:56 UTC

1 35716U 93036AQM 26255.70615137  .00000459  00000-0  96109-4 0  9990
2 35716  73.9947  29.7937 0088803 165.7669 255.2447 14.60382554916268

Suivez COSMOS 2251 DEB en temps réel avec AllMySat

Download on the App Store